GPS BIIF-11 (PRN 10)

Last updated on Fri Dec 12 2025 00:03:18 GMT+0000 (Coordinated Universal Time)

1 41019U 15062A 25345.31419486 -.00000093 00000+0 00000+0 0 9995 2 41019 56.8311 38.0574 0110787 229.9047 129.1688 2.00567124 74064
UTC large
Height (km)
Speed (km/s)
/
Latitude / Longitude
Inclination (degrees)
Orbital Period (minutes)
Azimuth
Elevation
Range (km)
Doppler Factor

Next 0 passes for location: London (51.5072 / 0.1276)

Sorry there are no passes over London.